Location: Krakow
(50.0830°N, 19.9170°E)
Time: 16:05:10
(UTC+02:00)

Courier 1B - Visible Passes

Search period start: 24 June 2024 00:00
Search period end: 04 July 2024 00:00
Orbit: 962 x 1208 km, 28.3° (Epoch: 23 June)

Date Brightness Start Highest point End Pass type
(mag) Time Alt. Az. Time Alt. Az. Time Alt. Az.
24 Jun 9.6 01:53:20 10° SSE 01:53:20 10° SSE 01:53:36 10° SSE visible
24 Jun 9.5 03:41:54 10° SSW 03:43:49 11° S 03:45:44 10° S visible
25 Jun 9.4 02:49:58 12° S 02:50:17 12° S 02:52:37 10° SSE visible
